THOR AGENA B R/B, 741

Orbit data source: Space-Track

THOR AGENA B R/B, 741 is space debris in LEO originally from a launch on Sat, 25 Jan 1964 UTC launched from the Air Force Western Test Range (AFWTR). Debris objects in space refer to the collection of defunct objects orbiting the Earth. Examples of debris include non-operational satellites, rocket bodies, and fragments generated from explosions, collisions, or faulty payload assembly.

Loading next visibility...
Identifier
741, 1964-004B
Orbit
LEO
Country
Flag of USUS
Related business
Manufacturer
LMSC
Mission
Spacecraft
Bus & Motor
AGENA B, Unknown motor
Mass
~705 kg wet, 705 kg dry
Launch date (UTC)
1964-01-25 (62 years ago)
Launch vehicle
Unknown
Launch site
Air Force Western Test Range (AFWTR)
Object type
Payload
Rocket body
Debris
Shape & HBR
Unknown
Radar Cross Section
Large (>1 m²)

Expand to show TLE details & history
Last TLE update: 7 hours ago

TLE from 7 hours ago
0 THOR AGENA B R/B
1 00741U 64004B   26070.91048528 -.00000014  00000-0 -55649-4 0  9998
2 00741  81.4869 242.2328 0172525 129.1037 343.2948 13.23825855   205
Epoch: 2026-03-11T21:51Z
TLE epoch observation values (Epoch: 2026-03-11T21:51:05.928Z)
Latitude
66.73827°
Longitude
-95.37741°
Altitude
1,057.073 km
Speed
7.39 km/s
True Right ascension
02h 47m 51s
True Declination
66° 37' 06"
Sunlit
Object was in daylight at epoch
Visualization orbit readout
Latitude
Unknown
Longitude
Unknown
Altitude
Unknown
Speed
Unknown
Apparent Right ascension
Unknown
Apparent Declination
Unknown
Sunlit
N/A
Visualization observer readout
Local Sidereal Time
09:01:58
Azimuth
Unknown
Elevation
Unknown
Doppler factor
Unknown
Orbital elements
Apogee altitude
1,297.6 km
Perigee altitude
1,037.241 km
Semi-major axis
7,545.557 km
Eccentricity
0.01725
Inclination
81.4869°
RAAN
242.2328°
Arg. of periapsis
129.1037°
True anomaly
342.71455°
Mean anomaly
343.2948°
Eccentric anomaly
343.00589°
Mean motion
3.31136 °/min
Orbital period
108.72 mins
BSTAR
-0.000055649
Loading maneuver chart data...
Computing Atmospheric mass density...
Loading historical data...
Loading historical data...
Loading historical data...
Loading historical data...
Loading historical data...
Loading historical data...
Loading historical data...

Documentation

Showing up to 5 results
|